Location: Bow
(51.5261°N, 0.0167°W)
Time: 03:38:50
(UTC+00:00)

Cosmos 1733 - Pass Details

Date: 18 September 2020
Orbit: 504 x 523 km, 82.5° (Epoch: 18 October)

Event Time Altitude Azimuth Distance (km) Brightness Sun altitude
Exits shadow 20:52:23 49° 357° (N) 684 3.9 -24.7°
Drops below altitude 10° 20:55:17 10° 8° (N) 1,760 6.2 -25.0°
Sets 20:57:25 0° 10° (N) 2,649 7.2 -25.3°
